This is the latest recevied weather packets stored in our database for station/object YT1XN-8. If no packets are shown the sender has not sent any weather packets the latest 1 day(s).
| Time | Temp. | Humidity | Pressure | Rain* | Wind** | Luminosity | Snow |
|---|---|---|---|---|---|---|---|
| 1777989519 | 28.33° C | 29% | 1012.5 hPa | 0 mm | 1.79 m/s, 90° | - | - |
| 1777989040 | 28.33° C | 33% | 1012.7 hPa | 0 mm | 0 m/s | - | - |
| 1777988859 | 27.78° C | 32% | 1012.7 hPa | 0 mm | 0.45 m/s, 127° | - | - |
| 1777988441 | 27.78° C | 31% | 1012.9 hPa | 0 mm | 0.45 m/s, 87° | - | - |
| 1777988200 | 27.78° C | 36% | 1012.9 hPa | 0 mm | 0.89 m/s, 5° | - | - |
| 1777987841 | 27.78° C | 33% | 1013 hPa | 0 mm | 0.45 m/s, 159° | - | - |
| 1777987540 | 27.78° C | 33% | 1013.1 hPa | 0 mm | 0.45 m/s, 130° | - | - |
| 1777987242 | 28.33° C | 33% | 1013.1 hPa | 0 mm | 0.89 m/s, 110° | - | - |
| 1777986880 | 28.33° C | 36% | 1013.2 hPa | 0 mm | 0.89 m/s, 151° | - | - |
| 1777986641 | 28.33° C | 34% | 1013.3 hPa | 0 mm | 1.34 m/s, 136° | - | - |
| 1777986220 | 28.33° C | 36% | 1013.5 hPa | 0 mm | 0.45 m/s, 107° | - | - |
| 1777986041 | 28.33° C | 35% | 1013.5 hPa | 0 mm | 0.89 m/s, 82° | - | - |
| 1777985560 | 27.78° C | 35% | 1013.7 hPa | 0 mm | 0 m/s | - | - |
| 1777985441 | 27.78° C | 36% | 1013.7 hPa | 0 mm | 0.45 m/s, 121° | - | - |
| 1777984900 | 27.78° C | 33% | 1013.8 hPa | 0 mm | 0.45 m/s, 219° | - | - |
| 1777984841 | 27.78° C | 33% | 1013.9 hPa | 0 mm | 1.79 m/s, 160° | - | - |
| 1777984240 | 27.78° C | 36% | 1014.1 hPa | 0 mm | 0.45 m/s, 257° | - | - |
| 1777983642 | 27.78° C | 39% | 1014.3 hPa | 0 mm | 1.34 m/s, 257° | - | - |
| 1777983580 | 27.78° C | 37% | 1014.3 hPa | 0 mm | 1.34 m/s, 257° | - | - |
| 1777983041 | 28.33° C | 31% | 1014.4 hPa | 0 mm | 0 m/s | - | - |
| 1777982919 | 28.33° C | 32% | 1014.4 hPa | 0 mm | 0.45 m/s, 238° | - | - |
| 1777982441 | 28.33° C | 33% | 1014.4 hPa | 0 mm | 0 m/s | - | - |
| 1777982259 | 28.33° C | 35% | 1014.4 hPa | 0 mm | 0.89 m/s, 284° | - | - |
| 1777981841 | 28.33° C | 33% | 1014.5 hPa | 0 mm | 1.79 m/s, 272° | - | - |
| 1777981600 | 27.78° C | 34% | 1014.6 hPa | 0 mm | 0 m/s | - | - |
* Rain latest hour (hover to see other rain measurements)
** Current wind speed in m/s (hover to see current wind gust speed)